Regional Weather Roundup
Issued by NWS

Home | Current Version | Previous Version | Graphics & Text | Print | Product List | Glossary On
Versions: 1 2 3 4 5 6 7 8 9 10 11 12 13 14 15 16 17 18 19 20 21 22 23 24 25 26 27 28 29 30 31 32 33 34 35 36 37 38 39 40 41 42 43 44 45 46 47 48 49 50
027
ASUS43 KDMX 141001
RWRIA

WEATHER ROUNDUP FOR IOWA
NATIONAL WEATHER SERVICE DES MOINES IA
400 AM CST THU DEC 14 2017

NOTE: "FAIR" INDICATES FEW OR NO CLOUDS BELOW 12,000 FEET WITH NO
SIGNIFICANT WEATHER AND/OR OBSTRUCTIONS TO VISIBILITY.

* - THESE STATIONS ARE NOT NWS STATIONS...THUS NOT UNDER NWS
QUALITY CONTROL.  THEY ALSO DO NOT REPORT WEATHER SUCH
AS PRECIPITATION OR FOG.

IAZ001>003-012>014-020>022-031>034-043>046-141100-
   NORTHWEST IOWA

CITY           SKY/WX    TMP DP  RH WIND       PRES   REMARKS
CARROLL *      CLOUDY    27  19  74 N13       30.00S WCI  16
CHEROKEE *     CLOUDY    26  22  85 N3        30.01S
DENISON *      CLOUDY    28  25  86 N6        30.02S WCI  22
LE MARS *      CLOUDY    28  25  86 NE3       30.00F
ORANGE CITY *  CLOUDY    28  27  93 CALM      29.99S
SHELDON *      CLOUDY    25  21  86 NE7       29.98S WCI  17
SIOUX CITY     CLOUDY    32  27  81 CALM      30.01F
SPENCER        CLOUDY    23  17  78 NW9       29.99S WCI  13
STORM LAKE *   CLOUDY    23  19  86 N13       29.99R WCI  11
$$

IAZ055>058-069>071-079>083-090>094-141100-
   SOUTHWEST IOWA

CITY           SKY/WX    TMP DP  RH WIND       PRES   REMARKS
ATLANTIC *     CLOUDY    30  23  74 N7        30.01S WCI  23
AUDUBON *      CLOUDY    28  21  74 N6        30.00S WCI  22
CLARINDA *       N/A     34  25  69 N3        30.03S
COUNCIL BLFS * CLOUDY    34  28  80 NW8       30.01S WCI  27
CRESTON *      CLOUDY    28  21  74 N7        30.00S WCI  21
HARLAN  *      CLOUDY    28  25  86 NE5       30.04S WCI  23
LAMONI         CLOUDY    29  20  69 NW8       29.99R WCI  21
RED OAK *      CLOUDY    32  25  74 N6        30.01F WCI  26
SHENANDOAH *   CLOUDY    36  25  64 N3        30.02S
$$

IAZ047>049-059>061-072>074-084-141100-
   CENTRAL IOWA

CITY           SKY/WX    TMP DP  RH WIND       PRES   REMARKS
AMES           CLOUDY    23  18  81 NW8       30.00S WCI  14
ANKENY *       CLOUDY    25  18  74 N6        30.03R WCI  18
BOONE *        CLOUDY    23  18  80 N6        29.99S WCI  16
CHARITON *     CLOUDY    27  19  74 N7        29.99S WCI  19
DES MOINES     CLOUDY    26  17  68 N10       30.01R WCI  16
GRINNELL*      MOCLDY    21  16  81 N5        29.99R WCI  15
KNOXVILLE *    CLOUDY    27  16  63 N5        29.99R WCI  21
MARSHALLTOWN   CLOUDY    23  16  74 N3        29.98R
NEWTON *       CLOUDY    25  18  74 N6        30.00R WCI  18
PELLA *        MOCLDY    26  18  70 N3        30.01R
PERRY *        CLOUDY    26  18  72 N9        30.01R WCI  17
$$

IAZ004>006-015-016-023>025-035-036-141100-
   NORTH CENTRAL IOWA

CITY           SKY/WX    TMP DP  RH WIND       PRES   REMARKS
ALGONA *       CLOUDY    18  18 100 N6        29.99S WCI   9
CLARION *      CLOUDY    21  18  86 N6        29.99S WCI  14
ESTHERVILLE    CLOUDY    21  16  81 N6        29.98S WCI  13
FORT DODGE *   CLOUDY    22  17  81 N5        30.00R WCI  16
MASON CITY     CLOUDY    16  12  84 N7        29.99S WCI   6
FOREST CITY *  CLOUDY    21  18  86 N5        29.98R WCI  15
WEBSTER CITY * CLOUDY    18  14  86 NW5       29.98R WCI  11
IOWA FALLS *   CLOUDY    24  17  73 N5        29.99R WCI  18
$$

IAZ007>011-017>019-026>030-037>042-050>054-066-141100-
   NORTHEAST IOWA

CITY           SKY/WX    TMP DP  RH WIND       PRES   REMARKS
CEDAR RAPIDS   CLOUDY    14  10  84 N8        29.97S WCI   3
CHARLES CITY * PTCLDY    14  14 100 NW7       29.98S WCI   4
CLINTON *      CLOUDY    23  16  74 N7        30.00R WCI  15
DECORAH *      PTCLDY    10  10 100 CALM      29.97R
DUBUQUE        CLOUDY    20  13  74 N5        29.97R WCI  13
MONTICELLO *   CLOUDY    19  14  79 N5        29.99R WCI  13
OELWEIN *      CLOUDY    12  12 100 N3        29.98S
WATERLOO       CLOUDY    16  12  84 N9        29.98F WCI   4
$$

IAZ064-065-067-068-078-141100-
   EAST CENTRAL IOWA

CITY           SKY/WX    TMP DP  RH WIND       PRES   REMARKS
DAVENPORT      CLOUDY    22  14  71 N9        30.01R WCI  12
IOWA CITY      PTCLDY    22  14  71 N3        30.01S
MT. PLEASANT * PTCLDY    23  15  70 N6        30.00S WCI  16
MUSCATINE *    CLOUDY    21  16  79 N5        30.01R WCI  15
QUAD CITIES    CLOUDY    25  15  66 N5        29.99R WCI  19
$$

IAZ062-063-075>077-085>089-095>099-141100-
   SOUTHEAST IOWA

CITY           SKY/WX    TMP DP  RH WIND       PRES   REMARKS
BURLINGTON     CLOUDY    24  16  71 N8        29.98R WCI  15
FAIRFIELD *    CLOUDY    23  16  74 N7        29.99S WCI  15
FORT MADISON * CLOUDY    27  18  69 N6        30.00R WCI  20
KEOKUK *       CLOUDY    28  18  64 N9        29.98S WCI  20
OSKALOOSA *    CLOUDY    26  18  72 N6        30.00S WCI  19
OTTUMWA        CLOUDY    27  17  66 N9        29.99S WCI  18
WASHINGTON *   PTCLDY    19  14  79 NW3       30.01R
$$

ABBREVIATIONS USED IN REMARKS
   TC - TEMPERATURES IN CELSIUS
  WCI - WIND CHILL INDEX
   HX - HEAT INDEX
  VSB - VISIBILITY
$$





USA.gov is the U.S. government's official web portal to all federal, state and local government web resources and services.